Погода в Максатихе

Россия / Тверская область     57°47′36″N   35°52′30″E
темп.,
°C
ветер,
м/с
пор.,
м/с
влажн.,
%
обл.,
%
осадки,
мм/ч
давл.,
гПа
погр.,
м
12 августа, пт
пт1200:00+14зюз238155 0.0 102539
03:00+13зюз2380100 0.0 102557
06:00+13зюз2582100 0.0 1025111
09:00+19зюз3658100 0.0 1025376
12:00+24з4544100 0.0 10241201
15:00+25з454033 0.0 10231531
18:00+24зсз355178 0.0 1022507
21:00+17сз227767 0.0 102318
13 августа, сб
сб1300:00+15зсз228153 0.0 102313
03:00+14з118799 0.0 102411
06:00+14з118714 0.0 102317
09:00+21з126128 0.0 1023362
12:00+25з224643 0.0 10221368
15:00+27з224194 0.0 10211785
18:00+24зюз1158100 0.0 102029
21:00+19юз1170100 0.0 102113
14 августа, вс
вс1400:00+17зюз1181100 0.0 102111
03:00+16зюз1185100 0.0 102111
06:00+16юз1184100 0.0 102111
09:00+22зюз1163100 0.0 1021335
12:00+26ююз114934 0.0 10201192
15:00+28ююв01424 0.0 10201872
18:00+26ю115442 0.0 101990
21:00+19ююз117514 0.0 102011
15 августа, пн
пн1500:00+18ююз11785 0.0 102011
03:00+17ю11805 0.0 102011
06:00+17вюв11835 0.0 102111
09:00+23в125718 0.0 1021367
12:00+27юв23432 0.0 10201670
15:00+29юв333714 0.0 10202334
18:00+27юв2451100 0.0 1020183
21:00+21вюв246583 0.0 102059
16 августа, вт
вт1600:00+19вюв247119 0.0 102172
03:00+18вюв237480 0.0 102147
06:00+18юв257682 0.0 102198
09:00+22юв2663100 0.0 1022255
12:00+28юв4642100 0.0 1021908
15:00+28юв3540100 0.0 10211601
18:00+26юв3750100 0.0 1021394
21:00+22вюв3964100 0.0 1021194